FW9892 Weather Reports


time (UTC)temp
F
wind
direction
speed
knots
gust
knots
rain 1hr
in
rain 24hr
in
rain mn
in
humidity
%
barometer
mb
20260505193059 51 0 2.6 7.8 0.06 0.09 0.09 93 1008.8
20260505191557 51 0 0.0 5.2 0.04 0.07 0.07 93 1008.6
20260505190050 51 0 0.0 4.3 0.02 0.04 0.04 93 1008.4
20260505184556 51 0 0.0 3.5 0.01 0.03 0.03 93 1008.5
20260505183053 51 0 0.0 7.8 0.00 0.03 0.03 93 1008.4
20260505181556 51 0 0.9 5.2 0.00 0.02 0.02 92 1008.4
20260505180047 51 0 0.9 5.2 0.00 0.02 0.02 92 1008.5
20260505174559 51 360 0.9 8.7 0.00 0.02 0.02 92 1008.5
20260505173057 51 360 0.9 8.7 0.00 0.02 0.02 92 1008.6
20260505171555 51 360 1.7 8.7 0.00 0.02 0.02 92 1008.5
20260505170051 51 360 2.6 8.7 0.00 0.02 0.02 93 1008.5
20260505164554 51 360 0.0 7.0 0.00 0.02 0.02 93 1008.6
20260505163048 51 360 0.0 4.3 0.00 0.02 0.02 93 1008.5
20260505161609 51 0 0.0 4.3 0.00 0.02 0.02 92 1008.6
20260505153059 52 0 0.9 7.8 0.00 0.02 0.02 92 1008.8
20260505151601 52 0 0.9 7.8 0.00 0.02 0.02 93 1008.8
20260505150105 52 344 0.0 7.0 0.00 0.02 0.02 93 1008.7
20260505130115 51 348 1.7 8.7 0.00 0.02 0.02 95 1009.5
20260505124608 51 360 0.9 7.0 0.00 0.02 0.02 95 1009.6
20260505123105 51 346 0.9 7.0 0.00 0.02 0.02 95 1009.5
20260505121556 51 360 0.9 8.7 0.00 0.02 0.02 95 1009.8
20260505120113 51 360 0.9 7.0 0.00 0.02 0.02 95 1009.8
20260505114556 51 0 0.9 7.8 0.00 0.02 0.02 95 1010.0
20260505113115 51 360 0.9 8.7 0.00 0.02 0.02 95 1009.9
20260505111556 51 0 0.9 7.0 0.00 0.02 0.02 95 1009.9
20260505110112 51 360 0.0 4.3 0.00 0.02 0.02 95 1009.9
20260505101555 52 0 0.0 7.8 0.00 0.02 0.02 95 1010.0
20260505100057 52 360 0.0 7.8 0.00 0.02 0.02 95 1010.0
20260505094601 52 360 0.0 7.0 0.00 0.02 0.02 95 1010.0
20260505093058 52 0 0.9 7.8 0.00 0.02 0.02 95 1010.0
20260505091604 52 0 0.0 7.0 0.00 0.01 0.01 95 1010.1
20260505084555 52 360 0.0 5.2 0.00 0.01 0.01 95 1010.1
20260505083059 52 0 0.0 4.3 0.00 0.01 0.01 95 1010.1
20260505081556 52 348 0.0 4.3 0.00 0.01 0.01 95 1010.2
20260505080052 52 0 0.0 3.5 0.00 0.01 0.01 95 1010.2
20260505074550 52 360 1.7 8.7 0.00 0.01 0.01 95 1010.2
20260505073051 52 0 0.9 4.3 0.00 0.01 0.01 95 1010.3
20260505071551 52 0 0.9 7.0 0.00 0.01 0.01 94 1010.1
20260505070052 52 0 0.0 7.0 0.00 0.01 0.01 94 1010.1
20260505064550 53 360 0.0 7.0 0.00 0.01 0.01 94 1010.1
20260505063046 53 0 0.0 3.5 0.00 0.00 0.00 94 1010.1
20260505061554 53 0 0.9 7.0 0.00 0.00 0.00 94 1010.1
20260505060050 53 360 0.0 6.1 0.00 0.00 0.00 94 1010.4
20260505054556 53 0 0.0 5.2 0.00 0.00 0.00 94 1010.3
20260505053056 53 0 0.0 4.3 0.00 0.00 0.00 94 1010.4
20260505051552 53 5 0.0 7.0 0.00 0.00 0.00 94 1010.2
20260505041557 54 355 0.0 4.3 0.00 0.01 0.00 94 1010.2
20260505040103 55 0 0.0 3.5 0.00 0.01 0.00 93 1010.3
20260505034554 55 360 0.9 7.0 0.00 0.01 0.00 93 1010.3
20260505033100 55 0 0.0 1.7 0.00 0.01 0.00 93 1010.4
20260505031611 55 360 0.0 2.6 0.00 0.01 0.00 93 1010.4
20260505024555 56 360 0.0 2.6 0.00 0.01 0.00 93 1010.6
20260505023056 56 0 1.7 7.8 0.00 0.01 0.00 93 1010.7
20260505021555 56 0 0.0 2.6 0.00 0.01 0.00 93 1010.7
20260505020057 56 0 0.0 1.7 0.00 0.01 0.00 93 1010.7
20260505014605 56 0 0.0 3.5 0.00 0.01 0.00 93 1010.6
20260505013054 56 0 0.0 2.6 0.00 0.01 0.00 93 1010.7
20260505011553 56 0 0.0 0.0 0.00 0.00 0.00 93 1010.8
20260505010055 56 0 0.0 0.0 0.00 0.00 0.00 93 1010.9
20260505004555 56 0 0.0 0.0 0.00 0.00 0.00 93 1011.0
20260505003055 56 0 0.0 0.0 0.00 0.00 0.00 92 1011.1
20260505001550 56 0 0.0 0.0 0.00 0.00 0.00 92 1011.1
20260505000055 55 0 0.0 0.0 0.00 0.00 0.00 92 1011.3
20260504234551 55 0 0.0 0.0 0.00 0.00 0.00 91 1011.3
20260504233052 56 0 0.0 0.0 0.00 0.00 0.00 91 1011.5
20260504231557 56 0 0.0 0.0 0.00 0.00 0.00 91 1011.5
20260504230055 56 0 0.0 0.0 0.00 0.00 0.00 91 1011.6
20260504224554 56 0 0.0 0.0 0.00 0.02 0.00 90 1011.7
20260504223051 56 0 0.0 0.0 0.00 0.02 0.00 90 1011.9
20260504221553 56 0 0.0 0.0 0.00 0.02 0.00 90 1012.0
20260504220050 56 0 0.0 0.0 0.00 0.02 0.00 89 1012.2
20260504214604 56 0 0.0 0.0 0.00 0.02 0.02 89 1012.2
20260504213055 56 0 0.0 0.0 0.00 0.02 0.02 88 1012.3
20260504211554 56 0 0.0 0.0 0.00 0.02 0.02 88 1012.3
20260504204609 57 0 0.0 0.0 0.00 0.02 0.02 87 1012.5
20260504203134 57 0 0.0 0.0 0.00 0.02 0.02 87 1012.4
20260504201556 57 0 0.0 0.0 0.00 0.02 0.02 87 1012.5
20260504200053 57 0 0.0 0.0 0.00 0.02 0.02 88 1012.6
20260504194551 57 0 0.0 0.0 0.00 0.02 0.02 88 1012.4